Vertical_Velocity
-3 -1 -0 -1 1 2 -1 5 -1 -1 -1 0 -1 2 0 -7 -3 3 -5 4 -5 3 3 3 1 2 3 0 7 6 4 -10 -16 -8 -21 17 18 -36 15 -4 10 -0 14 -4 5
-1 -2 -1 0 1 -2 2 1 1 0 -0 0 0 -3 0 -1 -12 -6 13 3 -3 4 0 -2 -3 2 -3 2 1 4 -7 -26 6 6 -11 12 51 12 32 -16 -10 33 29 -12 -3
-3 -2 0 -1 -2 -0 0 0 -1 -2 -0 0 1 -1 0 -2 -6 -0 -3 3 0 7 4 2 7 -3 1 3 -1 3 -40 11 2 19 6 -10 -2 14 -6 -8 -15 2 32 -15 -4
-2 2 -3 -1 1 -3 -1 -1 1 3 1 2 -2 -0 4 0 -11 -5 -8 -2 1 3 3 11 3 6 -2 -2 7 3 5 6 -2 28 -10 -12 -2 1 7 -15 -3 2 23 -12 -6
1 -0 1 -1 1 3 -2 -4 -2 -0 -0 -2 -0 5 7 3 -10 1 6 2 -1 3 4 8 2 11 2 1 0 -16 4 -0 -4 15 -1 -0 7 -2 -18 -6 17 -4 8 10 6
-3 -1 0 0 -1 -1 -0 -4 -2 -3 0 -1 -1 8 9 -2 5 -1 1 3 -5 2 7 5 2 11 2 -3 -3 5 1 -5 15 21 -9 -4 1 -10 -18 -4 7 -2 2 5 0
-0 -3 -1 -1 -2 -2 -2 -0 -2 -3 -1 -3 -1 2 10 -14 5 2 2 -3 6 3 5 6 6 -6 11 3 1 -7 8 -11 5 -2 20 -4 -11 -40 14 -2 11 -8 4 1 1
-7 -6 -2 -3 0 -1 -2 -3 -1 -2 -3 -1 7 9 -14 3 4 -1 3 5 2 6 2 -1 6 4 -12 4 -5 15 9 11 -3 4 -10 -0 -34 22 0 0 -4 6 -4 -2 -3
7 4 -4 -2 -2 2 2 0 3 -2 -1 1 -1 7 -10 -6 -2 7 3 1 5 8 -5 -2 6 6 25 -2 10 14 -8 -9 -0 -8 -5 -12 13 -18 -1 -8 -3 -3 -2 3 4
-6 1 2 -2 -2 0 -2 -2 -2 2 -1 -3 0 7 1 -5 -3 0 -1 1 4 -15 7 1 -2 4 -8 18 -21 -28 -5 6 4 3 -2 4 -4 -1 7 1 -2 -0 -2 -6 10
-1 -3 -1 -0 -4 -3 -2 -2 -2 -5 1 -0 -0 4 1 -1 2 0 0 2 1 -0 5 2 -0 -26 -6 -21 31 34 12 -8 -12 -9 9 -11 1 -18 -5 2 -2 -1 -3 -4 -8
-3 -2 -2 0 -1 -2 -3 -4 -3 -4 -5 -4 1 -4 2 11 -1 -1 1 -1 -8 7 -3 1 -28 11 15 19 -3 13 6 -6 12 -9 11 -3 -13 8 -10 -9 0 -3 -2 -1 1
2 1 -1 2 0 -3 -3 1 -3 -3 -7 6 8 2 1 5 5 -9 -2 1 0 -0 -4 -14 -5 7 3 4 -4 -3 -4 3 -15 21 7 10 5 6 -13 4 -3 -4 -1 2 -0
-1 -3 3 -1 0 -2 -5 4 0 -4 -2 -1 -9 1 6 -1 -9 -7 -5 4 -5 0 -1 -2 -12 -2 8 -8 10 2 -3 4 8 5 -6 -4 -6 -18 -3 -11 -4 -2 -1 1 -0
-9 -3 -0 -5 1 3 -5 6 -3 -3 1 6 -3 -6 -2 -1 5 -1 -1 2 -2 -3 -10 -20 -6 -4 -9 -26 8 -8 15 -3 9 -2 3 5 12 -52 25 -1 -16 -8 -2 1 0
-2 -6 -6 3 -0 -1 -0 2 2 -3 4 3 8 3 -7 -3 8 -5 -3 1 -2 7 9 12 13 -11 -6 1 2 8 -4 0 5 1 7 -8 -4 -12 -6 -19 5 0 2 1 1
-1 -4 -2 -6 2 -2 -2 -3 -0 2 0 5 4 2 47 -8 6 -0 -6 -1 -1 17 -4 -7 0 -4 9 29 43 1 2 0 3 4 -5 -16 20 -35 24 5 1 1 -0 -1 1
3 1 -8 2 -4 -1 1 -8 -4 -1 -2 6 0 9 1 6 11 5 -5 -6 9 4 9 12 23 26 -4 4 -4 3 -6 -7 -4 -1 -2 4 -1 -34 9 -1 -3 2 3 1 4
-3 7 -5 -1 -5 1 -1 -3 3 1 5 -1 4 -2 -4 -16 -2 4 -1 -8 7 12 22 -4 -1 2 21 1 4 -1 6 2 -3 -1 2 -4 1 5 2 -1 -2 -4 0 1 -1
-1 -3 -6 0 -5 3 -7 -0 0 0 4 -0 4 6 8 5 3 10 15 17 4 6 -3 1 -11 1 -4 2 4 -1 -4 -4 -2 -1 0 1 2 -4 -10 -8 -2 -4 1 -0 2
5 -1 -1 -5 -0 -4 -4 -0 -0 -0 -3 3 -0 4 9 -3 12 0 5 3 1 11 -1 2 -3 12 3 -3 -10 -5 0 -1 -6 1 2 1 0 3 0 1 2 1 3 2 3
4 -3 1 -8 -2 -5 0 3 3 -6 -5 -3 -0 4 -1 8 3 -5 0 1 -0 4 -2 3 -0 2 4 -10 -1 10 -3 -3 -1 2 -1 -1 -6 -1 1 5 4 5 0 1 3
-0 1 -1 -7 -1 -3 2 2 2 -1 -8 0 4 3 -2 2 0 1 1 5 3 -0 -0 -0 -5 1 9 10 14 -2 0 -6 0 -5 -3 1 -2 3 5 4 6 0 3 2 0
-5 2 -1 -4 -3 -3 -4 2 1 4 1 -7 1 2 4 -1 -1 -3 -4 -2 1 -1 1 -0 9 3 -1 -1 -9 -3 -3 1 -6 0 1 2 -3 6 -2 -3 -1 4 4 3 2
-7 2 -5 -3 -6 3 -2 0 0 0 3 1 5 0 -0 6 7 -2 -1 -2 -0 2 2 -2 -1 -1 -0 0 2 -0 -1 1 -2 1 -1 6 1 1 -2 -3 -0 2 3 -3 -1
-12 -7 5 1 -9 1 3 -0 -0 2 -1 -2 -4 3 2 -3 -1 3 -0 -2 -2 1 0 2 -2 2 -0 0 0 -1 1 3 1 3 -3 6 -4 -1 7 6 2 -3 1 1 -2
10 -8 1 0 -4 -5 -0 -0 -0 2 11 3 -1 -1 1 -0 0 0 1 0 -0 -5 -3 -3 -2 1 -0 -1 1 2 -1 -0 -0 -1 -1 -3 -1 0 -1 1 3 -0 -1 -1 -2
Height
3057 3052 3048 3044 3041 3038 3036 3034 3031 3030 3029 3029 3029 3030 3031 3031 3031 3032 3034 3041 3046 3051 3056 3058 3061 3067 3072 3077 3082 3087 3092 3092 3095 3101 3105 3114 3115 3118 3124 3126 3130 3134 3135 3134 3137
3052 3047 3044 3040 3037 3034 3031 3028 3026 3023 3023 3023 3023 3023 3024 3025 3023 3023 3031 3032 3039 3045 3049 3053 3056 3062 3066 3072 3077 3080 3083 3084 3093 3101 3104 3105 3109 3113 3119 3121 3124 3130 3132 3131 3135
3047 3043 3039 3035 3032 3028 3025 3022 3018 3016 3015 3014 3014 3016 3018 3017 3017 3018 3019 3024 3031 3037 3043 3049 3054 3057 3061 3066 3071 3074 3075 3082 3088 3098 3097 3102 3106 3109 3112 3117 3121 3125 3130 3129 3133
3043 3038 3034 3030 3025 3021 3017 3013 3010 3009 3008 3007 3007 3008 3010 3009 3013 3010 3012 3016 3021 3028 3036 3042 3047 3051 3054 3058 3066 3071 3071 3079 3087 3093 3093 3097 3099 3102 3107 3114 3120 3123 3127 3127 3128
3037 3033 3029 3023 3018 3013 3009 3006 3005 3003 3001 3001 3001 3001 3001 3001 3000 3007 3009 3009 3015 3020 3027 3035 3040 3046 3050 3056 3064 3066 3069 3076 3082 3086 3088 3093 3095 3097 3102 3111 3116 3117 3120 3122 3125
3033 3028 3023 3016 3011 3007 3004 3001 2999 2997 2995 2995 2996 2995 2995 2994 3000 3002 3006 3007 3010 3013 3018 3026 3032 3042 3048 3054 3058 3061 3067 3071 3077 3082 3083 3086 3090 3092 3099 3106 3110 3113 3116 3119 3120
3028 3023 3017 3011 3006 3002 2998 2995 2993 2991 2990 2990 2990 2990 2989 2991 2996 2996 3000 3003 3006 3009 3014 3020 3027 3034 3041 3048 3054 3061 3065 3069 3071 3077 3080 3083 3087 3086 3095 3102 3105 3107 3111 3115 3117
3022 3016 3012 3007 3002 2997 2993 2991 2988 2985 2983 2984 2984 2984 2982 2989 2993 2994 2996 3001 3003 3006 3010 3016 3022 3029 3036 3044 3052 3057 3062 3063 3066 3073 3077 3079 3077 3085 3090 3097 3099 3103 3106 3110 3112
3017 3010 3006 3002 2998 2993 2989 2985 2983 2981 2979 2978 2979 2981 2981 2984 2988 2992 2994 2997 3001 3003 3006 3012 3018 3024 3031 3037 3045 3052 3051 3054 3061 3066 3072 3073 3070 3080 3085 3091 3093 3097 3100 3105 3109
3015 3009 3004 2999 2996 2991 2987 2982 2978 2976 2975 2974 2975 2980 2979 2981 2984 2987 2990 2994 2998 2999 3005 3009 3016 3022 3027 3029 3030 3033 3039 3046 3052 3059 3064 3067 3067 3075 3080 3083 3087 3092 3096 3100 3106
3012 3007 3002 2997 2993 2989 2984 2979 2977 2973 2971 2973 2973 2975 2976 2978 2982 2985 2987 2990 2995 2997 3001 3005 3011 3012 3018 3025 3029 3037 3044 3048 3052 3059 3061 3062 3068 3069 3075 3078 3080 3084 3089 3094 3098
3008 3003 2999 2995 2991 2987 2982 2976 2973 2973 2969 2968 2970 2971 2974 2974 2977 2982 2986 2990 2992 2994 2997 3004 3003 3009 3019 3023 3031 3037 3043 3045 3052 3055 3059 3061 3062 3067 3070 3070 3074 3078 3083 3089 3093
3006 3001 2998 2993 2989 2985 2980 2975 2972 2970 2967 2967 2967 2967 2970 2972 2973 2978 2983 2986 2989 2992 2993 2998 2998 3008 3014 3020 3026 3032 3036 3043 3047 3053 3056 3059 3061 3061 3062 3067 3068 3072 3077 3083 3087
3006 3002 2997 2994 2989 2981 2977 2973 2970 2969 2967 2969 2966 2964 2964 2966 2969 2973 2978 2985 2987 2990 2992 2993 2999 3001 3010 3016 3023 3027 3035 3041 3046 3048 3051 3057 3054 3054 3056 3056 3061 3064 3070 3074 3078
3007 3003 2998 2992 2988 2980 2978 2971 2970 2970 2968 2967 2964 2964 2964 2967 2967 2969 2975 2981 2983 2985 2989 2988 2992 2996 3001 3006 3016 3026 3034 3037 3043 3046 3051 3053 3057 3043 3048 3050 3051 3056 3062 3068 3073
3003 3000 2996 2994 2986 2981 2976 2972 2972 2974 2969 2968 2966 2962 2960 2965 2967 2970 2972 2976 2980 2982 2981 2983 2991 2995 2995 3009 3017 3023 3030 3035 3039 3045 3047 3045 3049 3041 3040 3039 3046 3051 3055 3059 3063
3003 3000 2995 2993 2988 2982 2978 2974 2974 2974 2973 2972 2968 2964 2960 2965 2968 2969 2969 2971 2975 2975 2978 2982 2984 2989 2999 3006 3010 3020 3027 3036 3042 3042 3039 3038 3046 3036 3038 3038 3041 3044 3047 3051 3055
3005 3000 2996 2994 2990 2984 2980 2978 2977 2981 2975 2974 2972 2971 2969 2970 2969 2969 2971 2972 2971 2971 2976 2974 2977 2979 2993 3001 3000 3013 3022 3024 3031 3033 3033 3036 3035 3035 3036 3035 3037 3039 3042 3045 3050
3003 2998 2996 2992 2992 2988 2985 2983 2983 2981 2978 2973 2972 2971 2970 2970 2969 2970 2969 2968 2966 2969 2971 2975 2981 2986 2990 2998 3003 3011 3019 3021 3025 3030 3029 3029 3030 3030 3030 3031 3033 3036 3039 3042 3045
3004 3003 2997 2993 2993 2991 2987 2987 2985 2981 2979 2977 2975 2971 2968 2967 2967 2966 2968 2971 2974 2974 2972 2976 2984 2991 2993 3000 3005 3011 3018 3023 3028 3031 3028 3023 3023 3022 3026 3028 3030 3034 3037 3039 3043
3004 3001 2997 2996 2994 2993 2990 2990 2988 2985 2981 2982 2980 2977 2976 2973 2974 2972 2975 2976 2976 2977 2976 2980 2985 2994 2996 3000 3002 3011 3014 3021 3026 3028 3023 3024 3021 3020 3023 3023 3027 3031 3035 3038 3041
3003 3002 3001 2997 2997 2993 2993 2992 2991 2988 2986 2983 2983 2984 2981 2980 2979 2977 2979 2979 2981 2981 2980 2980 2987 2993 2997 3000 3007 3011 3013 3017 3023 3025 3025 3024 3021 3018 3020 3022 3026 3030 3033 3037 3040
3006 3006 3003 3000 2998 2996 2996 2993 2993 2991 2989 2988 2986 2987 2986 2984 2983 2982 2982 2983 2984 2984 2985 2988 2989 2994 3000 3003 3004 3007 3010 3015 3020 3022 3022 3022 3021 3020 3022 3024 3026 3028 3032 3035 3038
3007 3007 3005 3002 3002 2999 2997 2995 2994 2994 2993 2992 2990 2989 2989 2988 2985 2986 2986 2987 2987 2987 2988 2990 2992 2992 2994 2995 2998 3003 3008 3013 3017 3021 3019 3018 3018 3020 3020 3022 3025 3029 3032 3034 3036
3005 3004 3005 3004 3005 3002 3000 2998 2996 2994 2994 2994 2994 2991 2990 2990 2990 2989 2989 2989 2989 2990 2990 2991 2993 2994 2994 2996 2998 3002 3006 3010 3013 3017 3018 3018 3017 3018 3019 3022 3025 3029 3031 3032 3034
3008 3006 3004 3003 3004 3003 3001 3000 2998 2997 2994 2994 2994 2992 2991 2990 2991 2992 2991 2991 2991 2991 2992 2993 2995 2996 2996 2998 2999 3001 3005 3008 3012 3014 3016 3017 3017 3018 3021 3023 3025 3026 3028 3030 3030
3006 3005 3002 3002 3002 3004 3002 3000 2999 2997 2995 2995 2994 2994 2992 2991 2991 2991 2991 2992 2992 2993 2993 2994 2995 2997 2999 2999 3000 3003 3003 3005 3008 3010 3014 3015 3017 3018 3020 3021 3023 3024 3025 3025 3026